Location: Clanezzo
(45.7500°N, 9.6000°E)
Time: 12:13:37
(UTC+00:00)

Cosmos 1733 Rocket - Pass Details

Date: 12 May 2021
Orbit: 603 x 628 km, 82.5° (Epoch: 19 June)

Event Time Altitude Azimuth Distance (km) Brightness Sun altitude
Rises 21:37:25 0° 354° (N) 2,871 7.7 -22.0°
Reaches altitude 10° 21:39:40 10° 359° (N) 1,961 6.5 -22.1°
Maximum altitude 21:43:57 58° 79° (E) 708 3.2 -22.4°
Enters shadow 21:44:08 57° 91° (E) 712 3.1 -22.4°
